Total_Precipitation_Accumulation
1.10 1.05 1.10 1.33 1.39 1.43 1.65 1.75 1.56 1.46 1.46 1.37 1.29 1.24 1.20 1.12 1.08 1.04 1.35 1.68 2.05 2.55 2.96 2.91 2.57 2.10 1.95 2.12 2.14 2.11 2.06 2.29 2.87 2.97 2.87 2.78 2.65 2.63 2.39 2.04 1.74 1.57 1.47
1.14 1.17 1.11 1.25 1.49 1.56 1.63 1.66 1.58 1.48 1.42 1.42 1.36 1.39 1.38 1.17 1.22 1.21 1.28 1.36 1.56 1.92 2.59 2.99 2.76 2.31 2.14 2.18 2.12 2.12 2.07 2.14 2.75 3.00 3.01 2.91 2.79 2.77 2.38 2.01 1.88 1.75 1.70
1.16 1.17 1.08 1.15 1.38 1.61 1.63 1.61 1.57 1.57 1.38 1.29 1.37 1.44 1.45 1.33 1.35 1.37 1.32 1.30 1.23 1.47 2.03 2.66 2.79 2.58 2.46 2.50 2.32 2.23 2.21 2.36 2.53 2.82 2.97 2.97 2.87 2.69 2.31 1.99 1.78 1.80 1.86
1.14 1.23 1.18 1.15 1.33 1.58 1.78 1.85 1.75 1.68 1.55 1.44 1.48 1.47 1.41 1.48 1.45 1.42 1.36 1.35 1.37 1.29 1.47 1.77 2.14 2.51 2.65 2.75 2.56 2.42 2.19 2.02 2.05 2.36 2.66 2.87 2.91 2.66 2.50 2.22 1.94 1.88 2.03
1.07 1.29 1.41 1.35 1.39 1.61 1.72 1.71 1.74 1.65 1.63 1.56 1.44 1.40 1.36 1.46 1.54 1.38 1.34 1.35 1.46 1.43 1.34 1.19 1.34 1.68 2.14 2.76 2.88 2.49 2.24 2.01 1.84 1.92 2.20 2.56 2.79 2.69 2.55 2.35 2.07 1.88 1.96
1.27 1.43 1.56 1.58 1.59 1.70 1.71 1.83 2.00 1.82 1.64 1.62 1.49 1.38 1.32 1.36 1.43 1.46 1.50 1.47 1.50 1.46 1.40 1.26 1.20 1.05 1.36 2.01 2.53 2.39 2.38 2.25 1.95 1.84 1.96 2.11 2.38 2.56 2.33 2.27 2.22 1.99 1.88
1.50 1.64 1.75 1.81 1.76 1.70 1.80 1.97 2.32 2.18 1.82 1.66 1.70 1.57 1.40 1.36 1.44 1.44 1.58 1.67 1.58 1.50 1.53 1.46 1.32 1.15 1.04 1.17 1.67 2.14 2.29 2.41 2.24 2.03 1.95 2.03 2.10 2.38 2.29 2.15 2.27 2.20 2.06
1.61 1.70 1.91 2.02 1.97 1.97 2.07 2.13 2.38 2.53 2.24 2.04 2.07 2.24 1.99 1.78 1.45 1.22 1.32 1.46 1.52 1.55 1.52 1.55 1.45 1.29 1.22 1.14 1.05 1.44 1.83 2.09 2.29 2.22 2.10 2.08 2.11 2.23 2.29 2.19 2.17 2.35 2.24
1.80 1.77 1.89 2.08 2.08 2.07 2.12 2.32 2.64 2.95 2.87 2.58 2.37 2.56 2.30 2.03 1.93 1.43 1.17 1.25 1.40 1.52 1.54 1.60 1.57 1.43 1.37 1.37 1.17 1.03 1.19 1.53 2.08 2.36 2.37 2.26 2.21 2.24 2.33 2.35 2.39 2.42 2.41
1.71 1.71 1.83 2.03 2.19 2.30 2.40 2.47 2.48 2.86 3.14 2.95 2.77 2.44 2.14 2.01 2.17 1.99 1.52 1.25 1.31 1.36 1.44 1.44 1.54 1.60 1.55 1.48 1.36 0.97 0.87 1.11 1.83 2.54 2.73 2.51 2.31 2.25 2.42 2.51 2.37 2.13 2.14
1.81 1.71 1.76 1.83 1.88 1.99 2.14 2.29 2.37 2.61 2.81 2.97 2.93 2.71 2.46 2.30 1.89 1.89 1.94 1.70 1.45 1.24 1.24 1.35 1.52 1.59 1.57 1.47 1.46 1.09 0.85 0.79 1.17 1.92 2.53 2.69 2.57 2.48 2.59 2.61 2.39 2.15 2.02
1.80 1.68 1.63 1.71 1.74 1.74 1.90 2.03 2.14 2.41 2.62 2.76 2.81 2.69 2.58 2.55 2.26 2.00 1.83 1.81 1.67 1.44 1.28 1.28 1.34 1.42 1.48 1.43 1.30 1.27 1.04 0.80 0.80 1.08 1.57 2.15 2.41 2.49 2.58 2.58 2.49 2.29 2.25
1.44 1.41 1.33 1.38 1.51 1.56 1.75 1.84 1.80 1.87 2.06 2.29 2.47 2.50 2.49 2.41 2.36 2.28 2.12 1.93 1.70 1.40 1.36 1.28 1.25 1.35 1.36 1.43 1.42 1.53 1.15 0.90 0.81 0.83 0.99 1.30 1.60 1.89 2.19 2.37 2.48 2.50 2.57
1.11 1.09 1.08 1.08 1.14 1.22 1.44 1.67 1.67 1.68 1.74 1.84 1.94 2.20 2.35 2.31 2.33 2.12 2.01 2.06 1.84 1.54 1.36 1.16 1.08 1.13 1.21 1.31 1.58 1.67 1.15 1.02 0.86 0.86 0.92 0.95 1.07 1.21 1.51 1.87 2.09 2.25 2.40
0.86 0.84 0.88 0.97 1.03 1.01 1.12 1.26 1.45 1.53 1.60 1.67 1.69 1.85 2.00 2.10 2.07 1.89 1.91 2.02 1.91 1.62 1.43 1.28 1.19 1.14 1.15 1.19 1.46 1.37 1.18 1.14 1.03 0.97 0.92 0.89 0.88 0.89 1.03 1.23 1.41 1.57 1.68
0.77 0.78 0.76 0.78 0.84 0.87 0.97 1.10 1.16 1.27 1.36 1.52 1.68 1.81 1.83 1.88 1.93 1.81 1.80 1.93 1.92 1.72 1.48 1.28 1.14 1.10 1.18 1.14 1.30 1.19 1.28 1.35 1.06 0.94 0.88 0.87 0.81 0.74 0.69 0.75 0.87 1.00 1.10
0.61 0.62 0.65 0.73 0.74 0.76 0.78 0.80 0.85 0.93 1.02 1.12 1.19 1.32 1.52 1.71 1.79 1.78 1.82 1.88 1.93 1.81 1.55 1.41 1.17 1.16 1.31 1.27 1.24 1.18 1.26 1.31 1.11 0.99 0.85 0.79 0.77 0.71 0.70 0.65 0.66 0.73 0.81
0.57 0.57 0.62 0.66 0.66 0.72 0.75 0.74 0.73 0.78 0.89 0.97 0.98 1.00 1.10 1.34 1.51 1.64 1.71 1.73 1.81 1.79 1.64 1.61 1.52 1.30 1.26 1.25 1.36 1.42 1.35 1.31 1.28 1.26 1.12 0.90 0.81 0.76 0.73 0.69 0.63 0.60 0.61
0.73 0.74 0.73 0.75 0.71 0.73 0.74 0.74 0.77 0.80 0.83 0.88 0.90 0.91 0.99 1.11 1.27 1.36 1.44 1.55 1.63 1.75 1.74 1.56 1.61 1.57 1.36 1.31 1.33 1.40 1.46 1.55 1.43 1.38 1.44 1.26 1.04 0.92 0.84 0.78 0.70 0.65 0.64
0.65 0.66 0.73 0.80 0.87 0.91 0.88 0.83 0.83 0.83 0.79 0.81 0.87 0.94 0.96 0.98 1.15 1.36 1.45 1.52 1.55 1.66 1.78 1.71 1.64 1.62 1.47 1.41 1.39 1.40 1.52 1.62 1.63 1.43 1.34 1.30 1.24 1.12 0.98 0.89 0.80 0.75 0.74
0.54 0.53 0.62 0.70 0.80 0.90 0.94 0.93 0.81 0.71 0.71 0.75 0.75 0.76 0.84 0.91 0.99 1.18 1.30 1.52 1.55 1.66 1.73 1.80 1.73 1.58 1.45 1.40 1.38 1.36 1.43 1.62 1.67 1.63 1.55 1.37 1.25 1.09 0.98 0.95 0.93 0.91 0.86
0.50 0.50 0.54 0.51 0.54 0.59 0.78 0.79 0.68 0.56 0.59 0.67 0.73 0.74 0.74 0.77 0.81 0.88 0.92 1.16 1.36 1.48 1.58 1.60 1.66 1.55 1.43 1.38 1.47 1.48 1.44 1.48 1.57 1.58 1.45 1.51 1.48 1.29 1.13 1.00 1.08 1.14 1.11
0.48 0.48 0.42 0.38 0.40 0.44 0.52 0.52 0.59 0.56 0.56 0.59 0.67 0.75 0.80 0.78 0.85 0.94 0.92 0.97 1.07 1.14 1.27 1.39 1.43 1.39 1.39 1.35 1.44 1.48 1.46 1.39 1.31 1.40 1.38 1.44 1.49 1.38 1.24 1.13 1.14 1.11 1.10
0.45 0.50 0.43 0.39 0.44 0.43 0.47 0.54 0.57 0.55 0.65 0.71 0.70 0.69 0.79 0.86 0.93 1.10 1.08 1.15 1.09 1.00 1.00 1.06 1.19 1.26 1.22 1.32 1.40 1.56 1.64 1.52 1.40 1.42 1.40 1.33 1.28 1.25 1.17 1.16 1.18 1.04 0.98
0.40 0.36 0.40 0.53 0.53 0.53 0.62 0.57 0.49 0.54 0.66 0.74 0.69 0.70 0.80 0.90 1.08 1.20 1.21 1.22 1.13 1.05 1.11 1.20 1.26 1.33 1.34 1.40 1.46 1.53 1.59 1.60 1.51 1.45 1.37 1.24 1.15 1.14 1.15 1.11 1.09 1.10 1.04
0.31 0.33 0.37 0.50 0.55 0.61 0.62 0.48 0.45 0.55 0.67 0.75 0.75 0.73 0.93 0.94 1.04 1.09 1.14 1.26 1.29 1.16 1.11 1.13 1.16 1.20 1.19 1.27 1.48 1.49 1.60 1.70 1.58 1.49 1.37 1.26 1.21 1.31 1.36 1.19 1.05 1.03 1.00